July 22, 2014
Temp
 
67.8 °F
 
Dew Pt.
 
61.4 °F
 
Humidity
 
80%
 
Pressure
 
1017.1 hPa 
  rising slowly
Wind
 
0.0 mph 
    SW
Rain
 
0.00 in 
  0.00 in/hr
UV index
 
0.6  
 
Solar rad.
 
396 W/m²
 
Today

Sunny
Sunny
Tonight

Mostly Clear
Mostly
Clear
Hi 89 °F Lo 64 °F
Statistics - 7/22/2014
Max Temp 67.9 °F  8:25 am
Min Temp 60.9 °F  7:00 am
Max Dew Pt 61.5 °F  8:25 am
Min Dew Pt 56.0 °F  6:30 am
Max Pressure 1017.3 hPa  8:15 am
Min Pressure 1015.8 hPa  1:35 am
Max Wind 1 mph  6:50 am
Max UV 0.6   8:25 am
Max Solar 401 W/m²  8:25 am
Max Rainfall Rate —   —
Total Precipitation —   
Current Temp 67.9 °F  8:25 am
Temp 24hr ago 67.0 °F  8:25 am
Difference +0.9 °F  
Temp Rate +8.1 °F/hr  
Pressure Rate 0.0 hPa/hr  
time temp dew pt pressure uv solar wind wind speed rainfall rate
00:00 65.9 °F 59.2 °F 1016.1 hPa  Calm    
00:05 65.8 °F 59.1 °F 1016.0 hPa  Calm    
00:10 65.7 °F 59.0 °F 1015.9 hPa  Calm    
00:15 65.7 °F 59.0 °F 1015.9 hPa  Calm    
00:20 65.6 °F 58.9 °F 1016.0 hPa  Calm    
00:25 65.6 °F 58.9 °F 1016.0 hPa  Calm    
00:30 65.5 °F 58.8 °F 1015.9 hPa  Calm    
00:35 65.4 °F 58.7 °F 1015.9 hPa  Calm    
00:40 65.4 °F 58.7 °F 1016.0 hPa  Calm    
00:45 65.3 °F 58.6 °F 1016.0 hPa  Calm    
00:50 65.2 °F 58.5 °F 1016.0 hPa  W 1 mph   
00:55 65.2 °F 58.5 °F 1016.0 hPa  W 1 mph   
01:00 65.1 °F 58.4 °F 1016.1 hPa  W 1 mph   
01:05 65.1 °F 58.8 °F 1016.1 hPa  Calm    
01:10 65.0 °F 58.7 °F 1016.0 hPa  WNW 1 mph   
01:15 65.0 °F 58.7 °F 1015.9 hPa  Calm    
01:20 64.9 °F 58.6 °F 1015.9 hPa  Calm    
01:25 64.8 °F 58.5 °F 1016.0 hPa  Calm    
01:30 64.8 °F 58.5 °F 1015.9 hPa  Calm    
01:35 64.7 °F 58.4 °F 1015.9 hPa  Calm    
01:40 64.6 °F 58.3 °F 1016.0 hPa  Calm    
01:45 64.6 °F 58.3 °F 1015.9 hPa  Calm    
01:50 64.5 °F 58.2 °F 1016.0 hPa  Calm    
01:55 64.4 °F 58.1 °F 1016.0 hPa  Calm    
02:00 64.3 °F 58.0 °F 1015.9 hPa  Calm    
02:05 64.2 °F 57.9 °F 1016.0 hPa  Calm    
02:10 64.1 °F 58.1 °F 1016.0 hPa  Calm    
02:15 64.1 °F 58.1 °F 1016.0 hPa  Calm    
02:20 64.0 °F 58.0 °F 1016.0 hPa  Calm    
02:25 64.0 °F 58.0 °F 1016.0 hPa  Calm    
02:30 63.9 °F 57.9 °F 1016.1 hPa  Calm    
02:35 63.8 °F 57.9 °F 1016.0 hPa  Calm    
02:40 63.7 °F 57.8 °F 1016.1 hPa  Calm    
02:45 63.7 °F 57.8 °F 1016.1 hPa  Calm    
02:50 63.6 °F 57.7 °F 1016.2 hPa  Calm    
02:55 63.5 °F 57.6 °F 1016.2 hPa  Calm    
03:00 63.4 °F 57.5 °F 1016.2 hPa  Calm    
03:05 63.4 °F 57.5 °F 1016.2 hPa  Calm    
03:10 63.3 °F 57.7 °F 1016.3 hPa  Calm    
03:15 63.2 °F 57.6 °F 1016.3 hPa  Calm    
03:20 63.1 °F 57.2 °F 1016.2 hPa  Calm    
03:25 63.0 °F 57.4 °F 1016.3 hPa  Calm    
03:30 62.9 °F 57.3 °F 1016.2 hPa  Calm    
03:35 62.8 °F 57.2 °F 1016.3 hPa  Calm    
03:40 62.7 °F 57.1 °F 1016.2 hPa  Calm    
03:45 62.6 °F 57.0 °F 1016.1 hPa  Calm    
03:50 62.6 °F 57.0 °F 1016.1 hPa  Calm    
03:55 62.5 °F 56.9 °F 1016.1 hPa  Calm    
04:00 62.4 °F 56.8 °F 1016.1 hPa  Calm    
04:05 62.3 °F 56.7 °F 1016.1 hPa  Calm    
04:10 62.3 °F 56.7 °F 1016.2 hPa  Calm    
04:15 62.2 °F 57.0 °F 1016.2 hPa  Calm    
04:20 62.2 °F 57.0 °F 1016.2 hPa  Calm    
04:25 62.2 °F 57.0 °F 1016.2 hPa  Calm    
04:30 62.1 °F 56.9 °F 1016.2 hPa  Calm    
04:35 62.0 °F 56.8 °F 1016.2 hPa  Calm    
04:40 62.0 °F 56.8 °F 1016.2 hPa  Calm    
04:45 61.9 °F 56.7 °F 1016.3 hPa  Calm    
04:50 61.8 °F 56.6 °F 1016.4 hPa  Calm    
04:55 61.8 °F 56.6 °F 1016.4 hPa  Calm    
05:00 61.8 °F 56.6 °F 1016.4 hPa  Calm    
05:05 61.7 °F 56.5 °F 1016.3 hPa  Calm    
05:10 61.6 °F 56.4 °F 1016.2 hPa  Calm    
05:15 61.6 °F 56.4 °F 1016.3 hPa  Calm    
05:20 61.6 °F 56.4 °F 1016.3 hPa  Calm    
05:25 61.5 °F 56.3 °F 1016.2 hPa  Calm    
05:30 61.5 °F 56.3 °F 1016.3 hPa  Calm    
05:35 61.5 °F 56.6 °F 1016.3 hPa  Calm    
05:40 61.4 °F 56.5 °F 1016.4 hPa  Calm    
05:45 61.4 °F 56.5 °F 1016.3 hPa  Calm    
05:50 61.3 °F 56.4 °F 1016.2 hPa  Calm    
05:55 61.2 °F 56.3 °F 1016.3 hPa  Calm    
06:00 61.1 °F 56.2 °F 1016.2 hPa  Calm    
06:05 61.1 °F 56.2 °F 1016.2 hPa  Calm    
06:10 61.0 °F 56.1 °F 1016.2 hPa 3 W/m²  Calm    
06:15 60.9 °F 56.0 °F 1016.2 hPa 6 W/m²  Calm    
06:20 61.0 °F 56.1 °F 1016.2 hPa 8 W/m²  Calm    
06:25 60.9 °F 56.0 °F 1016.2 hPa 9 W/m²  Calm    
06:30 60.9 °F 56.0 °F 1016.2 hPa 11 W/m²  Calm    
06:35 60.9 °F 56.4 °F 1016.2 hPa 11 W/m²  Calm    
06:40 60.9 °F 56.4 °F 1016.3 hPa 12 W/m²  Calm    
06:45 60.9 °F 56.4 °F 1016.4 hPa 13 W/m²  Calm    
06:50 60.9 °F 56.4 °F 1016.5 hPa 16 W/m²  WSW 1 mph   
06:55 60.9 °F 56.4 °F 1016.5 hPa 17 W/m²  Calm    
07:00 61.0 °F 56.5 °F 1016.5 hPa 18 W/m²  Calm    
07:05 61.1 °F 56.6 °F 1016.5 hPa 19 W/m²  Calm    
07:10 61.2 °F 56.7 °F 1016.6 hPa 20 W/m²  Calm    
07:15 61.3 °F 56.7 °F 1016.6 hPa 21 W/m²  Calm    
07:20 61.4 °F 56.8 °F 1016.7 hPa 25 W/m²  Calm    
07:25 61.5 °F 56.9 °F 1016.7 hPa 142 W/m²  Calm    
07:30 61.6 °F 57.0 °F 1016.7 hPa 207 W/m²  Calm    
07:35 61.9 °F 57.7 °F 1016.8 hPa 225 W/m²  Calm    
07:40 62.4 °F 58.2 °F 1016.9 hPa 244 W/m²  Calm    
07:45 62.8 °F 58.5 °F 1017.0 hPa 257 W/m²  Calm    
07:50 63.2 °F 58.9 °F 1017.0 hPa 274 W/m²  Calm    
07:55 63.6 °F 59.3 °F 1017.0 hPa 291 W/m²  Calm    
08:00 64.4 °F 60.1 °F 1017.1 hPa 308 W/m²  Calm    
08:05 65.1 °F 60.5 °F 1017.2 hPa 323 W/m²  Calm    
08:10 65.9 °F 60.9 °F 1017.2 hPa 340 W/m²  Calm    
08:15 66.5 °F 61.2 °F 1017.2 hPa 359 W/m²  Calm    
08:20 67.1 °F 61.4 °F 1017.2 hPa 0.5 377 W/m²  Calm    
08:25 67.9 °F 61.5 °F 1017.2 hPa 0.6 394 W/m²  Calm